Regional Weather Roundup
Issued by NWS

Home | Current Version | Previous Version | Graphics & Text | Print | Product List | Glossary On
Versions: 1 2 3 4 5 6 7 8 9 10 11 12 13 14 15 16 17 18 19 20 21 22 23 24 25 26 27 28 29 30 31 32 33 34 35 36 37 38 39 40 41 42 43 44 45 46 47 48 49 50
000
ASUS45 KABQ 212001
RWRNM
WEATHER ROUNDUP FOR NEW MEXICO
NATIONAL WEATHER SERVICE ALBUQUERQUE NM
100 PM MST FRI NOV 21 2014

NOTE: "FAIR" MEANS FEW OR NO CLOUDS BELOW 12,000 FEET AGL WITH NO
       SIGNIFICANT WEATHER OR OBSTRUCTIONS TO VISION.

      THIS PRODUCT IS RELEASED AS TWO VERSIONS.  ONE VERSION NEAR
      THE TOP OF THE HOUR CONTAINING PRELIMINARY DATA FROM ALBUQUERQUE
      AND OTHER STATIONS.  A FINAL VERSION WITH ADDITIONAL DATA IS
      ISSUED ABOUT 10 MINUTES AFTER THE HOUR.

NMZ501-503-504-510>518-212100-
NORTHWEST PLATEAU/NORTHCENTRAL MOUNTAINS

CITY           SKY/WX    TMP DP  RH WIND       PRES   REMARKS
FARMINGTON     SUNNY     50  18  28 E7        30.01F
SANTA FE       PTSUNNY   50  18  28 SW6       30.03F
TAOS           PTSUNNY   43  21  42 W7        30.06S

$$
NMZ402-403-502-505>509-212100-
WESTCENTRAL MOUNTAINS/SOUTHWEST MOUNTAINS

CITY           SKY/WX    TMP DP  RH WIND       PRES   REMARKS
GALLUP         CLOUDY    45  19  35 W7        30.04F
SILVER CITY    PTSUNNY   55  19  24 SW9       30.01F

$$
NMZ407-409-411-412-212100-
SOUTHERN DESERTS

CITY           SKY/WX    TMP DP  RH WIND       PRES   REMARKS
LORDSBURG      FAIR      59  27  29 SE7       29.95F
DEMING         CLOUDY    63  27  25 SW8       29.96F
T OR C         PTSUNNY   56  20  24 E6        29.98F

$$
NMZ519>523-212100-
CENTRAL VALLEYS/CENTRAL HIGHLANDS

CITY           SKY/WX    TMP DP  RH WIND       PRES   REMARKS
ALBUQUERQUE    CLOUDY    50  14  23 CALM      30.03F
DOUBLE EAGLE   PTSUNNY   48  18  29 VRB6      30.04F
MORIARTY ARPT  FAIR      50  17  26 CALM      30.04F
CLINES CORNERS PTSUNNY   50  18  28 W12       30.02F
BELEN          FAIR      52  18  26 NE3       30.02F
SOCORRO        FAIR      52  17  25 N5        30.01F

$$
NMZ524>526-539-540-212100-
SOUTHCENTRAL MOUNTAINS

CITY           SKY/WX    TMP DP  RH WIND       PRES   REMARKS
RUIDOSO        PTSUNNY   54  16  22 SW17G24   30.06S

$$
NMZ527>531-212100-
NORTHEAST HIGHLANDS/NORTHEAST PLAINS

CITY           SKY/WX    TMP DP  RH WIND       PRES   REMARKS
LAS VEGAS      MOSUNNY   54  18  24 SW16G24   29.98F
RATON          PTSUNNY   49  22  34 SW3       29.95F
CLAYTON        MOSUNNY   61  24  24 S14       29.93F

$$
NMZ532>537-212100-
EASTCENTRAL PLAINS

CITY           SKY/WX    TMP DP  RH WIND       PRES   REMARKS
TUCUMCARI      MOSUNNY   62  25  24 VRB6      29.95F
CANNON AFB     NOT AVBL
CLOVIS AIRPORT MOSUNNY   63  25  23 SW9       29.97F

$$
NMZ028-029-538-212100-
SOUTHEAST PLAINS

CITY           SKY/WX    TMP DP  RH WIND       PRES   REMARKS
ROSWELL        PTSUNNY   63  23  21 NE5       29.96F
CARLSBAD       SUNNY     66  22  18 E5        29.95F
HOBBS          SUNNY     66  23  19 SE10      29.98F


$$


USA.gov is the U.S. government's official web portal to all federal, state and local government web resources and services.